Theta_e
295 290 288 292 295 298 297 295 295 299 303 302 301 301 303 306 308 309 310 311 312 313 316 318 320 319 320 323 323 323 324 331 338 336 338 340 333 334 335 339 339 339 337 336
292 287 293 296 296 296 296 294 294 299 300 299 299 299 303 305 307 309 309 310 311 313 314 316 316 318 321 323 324 326 326 327 330 334 336 338 332 332 334 336 339 338 337 335
289 291 295 295 294 293 294 293 293 293 296 296 296 295 298 302 304 306 309 309 310 310 310 312 313 319 322 323 325 325 327 328 330 334 337 334 333 331 330 331 334 336 336 334
292 295 293 292 292 294 290 296 294 292 290 285 295 287 295 299 299 303 305 306 307 308 309 312 316 318 321 323 325 328 328 328 330 335 334 330 328 326 328 331 333 333 336 334
291 292 292 291 292 295 292 296 293 293 290 290 291 289 294 299 297 300 303 305 308 310 314 314 316 317 318 321 324 328 329 329 330 332 334 331 328 331 333 333 332 330 333 331
293 298 296 294 295 296 296 292 292 292 290 284 290 289 290 292 297 300 303 306 310 312 313 314 316 317 318 320 323 326 327 328 330 331 333 331 328 332 331 332 331 328 331 332
292 293 296 298 294 296 294 290 281 279 281 282 291 288 291 297 299 302 304 307 310 312 311 312 313 314 316 318 321 322 323 326 329 330 329 330 330 332 333 333 331 328 327 328
285 283 293 298 294 291 291 290 284 278 279 282 291 286 292 299 302 306 307 308 309 310 312 312 313 315 317 318 320 321 322 323 327 328 325 329 329 330 331 331 330 328 327 328
285 286 296 297 297 296 291 288 294 287 290 286 289 292 298 300 302 305 305 305 307 308 310 312 314 316 316 316 317 319 319 321 325 327 325 327 328 328 329 333 332 328 327 326
292 284 292 294 297 297 294 295 287 288 279 279 286 288 290 296 299 302 302 303 305 308 310 312 313 314 314 314 315 317 319 321 324 325 324 325 324 329 330 332 328 327 325 326
295 291 288 292 289 289 290 290 291 290 288 282 281 286 298 297 300 301 303 305 306 308 310 312 311 312 312 312 312 313 314 321 324 323 323 323 322 326 328 329 327 326 325 325
294 292 286 289 295 296 293 291 292 286 284 287 286 286 301 302 302 302 303 305 308 311 309 310 311 312 311 309 308 307 306 316 323 321 321 320 321 324 326 326 324 325 325 325
292 290 283 286 292 294 290 291 292 292 291 286 283 286 301 303 303 304 305 307 309 308 307 308 308 307 308 307 306 302 301 302 320 319 318 318 319 322 323 323 322 322 324 322
295 290 286 283 286 291 289 290 291 291 286 287 288 290 297 300 300 302 304 304 304 305 304 304 304 304 305 305 302 298 298 299 318 319 318 317 319 321 321 321 322 320 322 321
293 287 289 289 290 292 290 291 292 290 291 287 290 291 295 299 301 300 300 300 300 299 299 300 300 299 301 301 299 296 297 299 316 317 316 316 318 319 321 319 320 320 321 321
292 287 289 287 290 291 289 291 292 292 292 291 292 291 302 302 301 298 297 298 296 295 295 296 296 296 296 296 293 293 294 296 302 314 313 315 316 318 320 319 318 318 320 321
289 287 287 283 288 288 285 290 291 292 293 293 289 295 300 296 295 293 294 293 292 292 293 292 292 292 293 292 291 291 292 293 303 313 313 314 314 316 317 317 317 318 317 319
289 288 287 284 285 278 290 297 295 293 295 296 295 297 299 296 293 291 291 291 291 291 291 289 289 289 290 290 291 291 291 293 306 308 310 314 315 315 315 316 316 317 318 317
292 289 285 282 283 286 289 294 293 292 290 296 295 296 297 294 292 289 291 292 291 289 289 288 289 288 288 287 289 289 288 288 292 293 295 299 304 309 315 314 316 317 317 317
292 293 287 285 280 277 286 292 296 296 287 294 295 294 295 296 290 287 291 292 290 289 288 287 287 287 286 285 287 286 285 286 286 288 290 292 295 297 298 299 303 307 316 311
286 287 284 284 282 286 292 295 295 285 284 293 295 294 294 290 290 290 291 289 289 287 286 287 287 286 285 285 285 285 285 284 285 287 288 288 289 291 292 294 295 296 293 290
285 284 284 286 282 279 293 294 286 288 293 293 293 293 290 290 290 289 288 288 287 285 284 285 285 285 285 285 285 285 284 285 285 285 285 286 285 286 289 289 289 289 288 286
285 287 283 287 284 289 291 289 291 293 292 293 292 292 292 290 289 288 287 286 284 284 283 284 283 283 284 285 285 285 285 286 285 284 284 284 285 285 286 286 286 286 285 284
291 293 288 288 284 285 287 289 291 292 292 292 293 292 292 289 289 287 286 284 284 283 283 283 282 281 281 283 284 285 288 288 286 284 283 283 282 282 283 283 283 283 283 282
290 291 286 285 286 287 287 287 289 289 290 291 290 290 290 290 289 288 286 285 284 283 283 282 281 281 280 281 282 284 286 288 285 285 284 284 283 282 281 281 281 281 282 282
289 283 284 282 284 286 285 287 288 286 286 288 288 288 288 288 287 288 286 285 285 284 284 283 281 281 281 281 282 283 284 285 285 283 283 283 282 282 281 280 280 283 283 283
Wind_Speed
32 25 27 40 32 29 28 17 21 16 19 11 17 21 20 20 16 16 15 12 13 14 14 15 12 2 5 9 10 11 11 12 11 12 12 11 10 8 10 12 14 14 11 12
24 29 41 26 27 30 26 20 23 21 6 10 15 19 18 19 21 20 18 17 18 18 17 15 7 7 7 10 10 12 12 13 13 12 12 8 8 8 8 10 11 12 12 10
31 34 26 27 25 27 27 24 22 19 9 16 20 22 21 21 20 20 18 18 19 19 16 12 8 7 8 10 7 9 13 13 13 15 8 7 8 7 8 10 11 13 11 13
28 26 27 27 27 22 24 19 19 15 12 20 19 18 20 22 11 23 23 22 18 14 6 6 8 9 6 6 5 9 11 12 13 15 13 16 10 11 11 10 11 11 14 13
19 16 23 26 25 20 16 15 13 16 19 19 19 16 17 14 15 13 16 14 12 9 10 8 6 5 5 5 6 6 10 11 13 14 16 14 13 13 11 12 15 13 12 11
15 15 13 19 19 19 10 7 10 11 13 17 21 18 11 16 12 17 12 13 12 10 7 5 3 4 7 5 7 9 9 12 12 13 16 15 15 17 13 13 11 10 7 10
7 20 19 12 18 16 16 15 7 7 9 15 19 18 15 6 15 17 13 12 8 6 3 2 3 7 9 9 8 9 12 12 13 14 16 13 16 18 16 13 10 12 10 9
9 8 10 12 17 14 21 20 6 7 11 12 15 10 12 21 5 10 12 8 7 7 5 3 6 9 11 12 13 14 16 16 13 13 12 15 15 11 10 12 11 10 9 10
12 14 18 15 13 15 22 18 13 6 8 5 8 10 5 6 17 10 10 7 6 1 3 7 8 11 13 14 17 17 16 20 16 13 12 14 13 13 10 13 11 9 10 9
10 6 8 16 14 13 15 14 13 8 5 7 9 11 5 14 10 10 7 5 4 2 6 8 8 12 13 15 17 18 18 24 20 13 13 12 11 13 11 10 13 12 10 10
10 9 8 12 14 20 12 12 12 11 12 5 8 2 13 15 14 11 8 2 2 2 6 6 8 10 13 14 17 18 19 24 16 12 13 13 12 13 11 11 12 11 11 11
7 9 14 19 12 15 23 16 18 9 14 9 9 2 2 11 9 3 1 1 5 9 14 12 13 14 14 16 18 17 17 18 4 10 10 12 12 12 12 11 13 13 11 12
10 4 2 6 6 8 15 17 14 12 12 7 9 7 7 9 9 7 6 14 9 10 12 13 14 15 16 16 17 17 16 17 6 8 10 12 13 13 10 12 13 11 10 11
9 6 5 5 6 5 11 16 18 14 9 10 11 12 17 13 7 16 12 12 10 10 11 11 13 15 15 16 17 16 16 16 7 9 10 10 10 8 10 12 13 11 11 12
7 8 8 3 9 4 4 10 10 12 12 9 4 15 17 5 15 13 10 7 9 11 12 13 14 15 17 18 17 16 14 13 7 9 9 9 8 8 10 12 11 10 10 11
12 6 8 9 8 6 6 7 8 11 10 11 12 8 16 11 13 12 9 9 11 12 12 14 15 16 17 18 17 17 15 15 16 9 9 9 9 9 12 10 9 10 10 12
7 7 8 3 3 3 8 11 12 11 11 8 12 7 4 10 11 10 8 10 10 11 13 14 16 15 16 17 16 16 15 19 12 9 9 9 10 10 9 9 9 10 10 10
8 9 5 5 3 5 5 8 8 10 9 7 2 7 8 13 12 9 8 9 11 12 14 13 14 15 16 16 15 14 16 19 8 6 5 7 11 10 8 8 9 8 9 10
11 6 5 4 6 7 8 9 10 12 5 10 7 7 8 13 11 10 9 10 11 12 12 12 12 14 15 16 15 13 17 16 13 12 11 10 8 5 9 9 8 7 8 7
5 7 6 6 5 2 7 10 13 17 4 7 6 8 8 7 3 3 10 11 11 11 11 12 13 13 13 15 14 12 14 15 12 13 11 12 11 11 9 7 6 4 3 8
2 4 9 9 7 6 15 11 7 6 5 8 8 9 10 6 5 6 8 10 11 11 12 11 10 10 12 13 13 12 13 15 12 9 12 14 12 11 10 9 8 7 10 11
4 4 2 4 5 2 19 6 6 1 6 7 11 10 8 7 7 6 8 10 13 14 13 12 10 11 11 12 12 10 13 9 8 6 16 12 16 10 8 12 11 11 10 13
3 6 3 6 4 7 10 9 9 8 7 9 9 8 6 6 7 8 9 11 12 13 11 11 11 11 12 10 10 12 11 9 8 18 19 15 13 13 10 14 11 10 12 10
4 6 3 7 6 6 9 9 9 9 10 10 10 9 8 7 7 8 8 9 10 10 11 11 11 11 12 13 13 13 12 13 12 17 19 16 16 17 15 13 12 11 9 8
5 8 6 3 4 1 7 9 9 8 9 9 10 10 9 7 8 9 9 9 9 10 10 11 11 11 13 13 14 15 14 12 15 16 13 13 11 16 16 17 13 12 14 10
6 4 4 4 7 4 7 7 8 9 10 10 9 8 10 11 10 9 9 9 10 10 11 11 12 12 12 12 14 15 14 14 13 13 10 10 11 12 12 12 15 30 25 26
Wind_Direction
205 205 207 215 216 230 238 258 253 244 250 215 220 238 244 230 206 219 209 233 236 240 231 227 228 148 224 258 264 252 240 227 202 211 215 203 201 207 214 214 196 192 202 199
198 211 218 218 216 226 238 234 241 248 197 254 261 252 246 247 250 236 221 236 240 242 237 228 213 211 231 252 261 256 241 235 218 214 216 192 190 204 212 217 196 207 184 192
224 216 216 217 219 223 219 227 225 239 242 306 269 254 258 261 267 265 243 242 249 249 242 226 176 221 239 244 259 265 255 244 223 223 180 188 190 203 205 203 206 202 195 202
223 216 200 216 218 215 221 209 230 249 232 250 261 273 258 240 276 225 231 234 235 237 214 194 189 216 234 262 297 291 276 251 229 215 190 203 204 201 208 208 205 200 198 202
211 229 220 210 215 201 229 208 231 216 234 238 227 237 254 228 195 201 195 195 186 155 180 184 196 239 271 299 307 302 288 263 241 215 221 194 212 213 205 202 200 204 198 196
237 201 196 218 200 200 152 149 215 231 245 245 234 232 226 247 225 223 193 154 152 150 168 201 229 269 274 339 329 307 280 264 243 219 217 189 204 224 209 201 194 195 189 192
192 257 185 200 157 171 166 167 165 203 213 237 224 229 233 193 174 173 145 155 151 142 174 248 291 320 325 303 307 307 295 265 243 220 229 196 204 226 222 194 190 191 187 186
235 189 168 204 185 184 191 186 162 180 207 219 223 218 212 224 216 109 141 144 135 183 161 269 350 348 328 325 321 315 304 288 244 222 219 218 208 230 224 187 191 193 198 195
256 235 176 180 185 197 194 205 210 289 244 255 177 200 86 175 164 156 179 172 180 174 4 6 356 4 341 330 320 310 300 283 266 217 217 214 216 228 203 193 191 185 187 192
298 233 191 178 216 221 195 208 212 223 238 230 198 198 193 171 161 189 205 181 203 281 359 347 0 0 340 330 320 309 297 280 257 210 206 209 205 209 213 180 190 184 177 180
306 272 174 162 206 216 212 203 218 236 238 251 258 92 118 173 179 182 208 137 319 355 308 339 9 351 339 337 328 320 313 287 237 189 199 201 192 208 214 185 180 172 177 182
326 301 194 201 178 234 209 209 213 220 217 244 286 152 118 104 100 134 195 28 336 14 27 355 347 335 337 341 338 331 320 316 205 187 184 188 191 216 205 172 186 169 171 179
337 314 179 202 152 170 194 205 223 227 282 237 224 236 142 139 133 134 24 41 35 13 6 351 337 334 331 341 339 333 319 329 213 194 177 193 198 219 179 168 181 172 159 170
308 316 327 343 341 203 211 201 202 216 227 241 237 143 183 184 140 67 51 28 1 8 2 341 338 334 330 340 340 334 320 331 215 183 190 189 192 190 169 170 175 170 167 168
0 285 322 347 258 288 243 217 222 229 237 244 265 301 130 85 69 61 38 11 5 2 350 341 342 338 337 339 341 330 317 326 245 185 178 168 169 170 184 177 169 165 166 170
337 297 327 276 239 271 263 262 265 262 259 269 277 276 65 76 73 59 34 9 8 1 345 342 347 341 339 337 339 322 326 326 311 161 161 160 182 188 178 171 166 156 165 173
302 322 324 294 350 320 261 249 249 250 259 273 270 36 85 84 74 55 29 17 7 353 345 355 352 345 342 339 336 327 336 323 293 157 161 166 179 181 162 159 164 171 168 165
279 310 290 298 243 225 66 354 284 252 43 347 14 34 12 100 94 69 36 13 8 358 359 360 354 346 348 339 340 331 6 342 4 68 100 179 177 165 162 155 167 175 176 167
199 257 297 275 276 272 148 31 2 350 82 23 27 32 32 129 126 69 37 20 26 10 10 1 356 354 344 349 342 352 18 353 360 41 37 28 50 97 149 169 169 167 163 162
224 246 273 284 264 276 25 24 342 325 114 48 50 37 9 190 252 43 14 21 28 20 18 4 2 2 353 351 341 9 18 359 1 15 33 32 30 49 62 47 44 29 113 91
271 238 240 248 252 112 360 358 346 267 40 31 52 45 28 67 50 26 11 28 29 27 16 9 8 2 2 350 350 12 21 12 348 344 45 43 34 39 47 61 44 65 82 86
13 301 294 260 233 208 356 70 19 187 25 39 48 47 61 71 62 38 29 27 24 21 19 12 16 12 8 1 354 2 38 1 341 320 50 36 45 23 38 59 57 60 77 83
54 31 330 10 27 26 28 56 18 33 55 39 50 52 53 60 56 40 31 28 27 25 15 14 19 15 14 8 14 4 14 15 23 39 39 41 49 44 41 55 58 59 58 67
78 25 346 320 41 39 22 25 33 30 44 39 40 52 54 60 50 53 40 33 26 18 23 15 20 21 15 10 9 14 11 47 45 44 37 37 44 48 37 49 46 50 52 63
356 329 342 90 119 320 74 31 14 29 30 47 51 40 33 48 48 45 42 37 29 25 21 27 24 25 20 9 13 15 9 26 51 58 58 58 59 67 61 55 52 57 52 59
4 11 358 9 338 295 54 38 28 35 26 30 35 53 48 30 38 37 42 33 24 24 24 27 26 30 30 25 21 21 22 28 43 52 44 48 54 60 65 63 65 56 62 65